Location: Deerlodge Park Campground
(40.4466°N, 108.5129°W)
Time: 18:08:47
(UTC-07:00)

Envisat - Visible Passes

Search period start: 22 January 2019 00:00
Search period end: 01 February 2019 00:00
Orbit: 764 x 766 km, 98.2° (Epoch: 22 January)

Date Brightness Start Highest point End Pass type
(mag) Time Alt. Az. Time Alt. Az. Time Alt. Az.
22 Jan 5.7 06:55:41 10° NE 06:59:48 24° E 07:03:51 10° SSE visible
22 Jan 3.7 18:09:45 10° SE 18:14:10 31° ENE 18:18:35 10° N visible
22 Jan 4.8 19:48:42 10° SSW 19:53:07 30° W 19:57:34 10° NW visible
23 Jan 6.6 06:22:04 10° E 06:22:39 10° E 06:23:14 10° E visible
23 Jan 3.3 19:11:12 10° S 19:16:14 69° WSW 19:21:19 10° NNW visible
24 Jan 3.1 18:34:38 10° SSE 18:39:33 54° ENE 18:44:29 10° N visible
24 Jan 5.7 20:15:36 10° SW 20:18:52 17° W 20:22:10 10° NW visible
25 Jan 5.9 06:44:54 10° NE 06:48:29 19° E 06:52:03 10° SE visible
25 Jan 4.0 17:58:59 10° ESE 18:03:04 25° ENE 18:07:08 10° NNE visible
25 Jan 4.4 19:37:10 10° SSW 19:41:51 38° W 19:46:35 10° NNW visible
26 Jan 3.0 18:59:57 10° SSE 19:05:01 87° WSW 19:10:08 10° NNW visible
27 Jan 3.3 18:23:39 10° SE 18:28:24 42° ENE 18:33:10 10° N visible
27 Jan 5.3 20:03:43 10° SW 20:07:34 22° W 20:11:27 10° NW visible
28 Jan 6.1 06:34:18 10° NE 06:37:10 15° E 06:40:01 10° SE visible
28 Jan 3.9 19:25:43 10° S 19:30:37 48° W 19:35:32 10° NNW visible
29 Jan 2.9 18:48:47 10° SSE 18:53:50 75° ENE 18:58:55 10° N visible
29 Jan 6.1 20:31:30 10° WSW 20:33:23 12° W 20:35:17 10° WNW visible
30 Jan 3.6 18:12:44 10° SE 18:17:15 34° ENE 18:21:48 10° N visible
30 Jan 5.0 19:52:00 10° SSW 19:56:17 27° W 20:00:35 10° NW visible
31 Jan 6.4 06:24:11 10° ENE 06:25:50 11° E 06:27:28 10° ESE visible
31 Jan 3.5 19:14:22 10° S 19:19:22 62° W 19:24:25 10° NNW visible
